Flight Track Log - Related Links

Times and Time Zones

All times are in EDT time to prevent confusion due to time zone crossing. See the SWA1496 flight status page for this flight to view local times or setup timezone preferences in your user account.

Time Position Orientation Groundspeed Altitude Reporting Facility
EDT Latitude Longitude Course Direction KTS MPH feet Rate Location/Type
15:42 37.7275 -122.2547 302° West 150 173 1,500  Level Oakland Center
15:43 37.7564 -122.3128 302° West 208 239 3,800 2,488 Climbing Oakland Center
15:44 37.7172 -122.3897 237° Southwest 275 316 6,600 3,326 Climbing Oakland Center
15:45 37.6833 -122.4333 226° Southwest 294 338 8,900 3,560 Climbing Northern Cal TRACON
15:46 37.6000 -122.4833 205° Southwest 328 377 12,000 3,130 Climbing Northern Cal TRACON
15:46 37.5675 -122.5008 203° Southwest 336 387 13,700 3,613 Climbing Oakland Center
15:47 37.4722 -122.5417 199° South 362 417 17,600 2,607 Climbing Oakland Center
15:48 37.3667 -122.5525 185° South 385 443 19,000 1,377 Climbing Oakland Center
15:49 37.2592 -122.5556 181° South 388 447 20,400 2,146 Climbing Oakland Center
15:50 37.1478 -122.5611 182° South 397 457 23,400 3,122 Climbing Oakland Center
15:51 37.0094 -122.5608 180° South 416 479 26,800 2,951 Climbing Oakland Center
15:52 36.9081 -122.4683 144° Southeast 445 512 29,400 2,311 Climbing Oakland Center
15:53 36.8100 -122.3706 141° Southeast 452 520 31,500 2,016 Climbing Oakland Center
15:54 36.7069 -122.2681 141° Southeast 471 542 33,500 2,098 Climbing Oakland Center
15:55 36.6061 -122.1686 142° Southeast 468 539 35,800 2,195 Climbing Oakland Center
15:56 36.5050 -122.0703 142° Southeast 462 532 38,000 1,770 Climbing Oakland Center
15:57 36.4061 -121.9747 142° Southeast 453 521 39,400 1,131 Climbing Oakland Center
15:58 36.3053 -121.8772 142° Southeast 458 527 40,300 726 Climbing Oakland Center
15:59 36.1939 -121.7700 142° Southeast 470 541 40,900 290 Climbing Oakland Center
16:00 36.0908 -121.6683 141° Southeast 473 544 40,900 49 Level Oakland Center
16:01 35.9961 -121.5572 136° Southeast 471 542 41,000  Climbing Oakland Center
16:02 35.9161 -121.4236 126° Southeast 481 554 40,900 -49 Descending Oakland Center
16:03 35.8169 -121.2694 128° Southeast 480 552 40,900 49 Level Oakland Center
16:04 35.7350 -121.1392 128° Southeast 481 554 41,000 49 Climbing Oakland Center
16:05 35.6522 -121.0111 128° Southeast 480 552 41,000  Level Oakland Center
16:06 35.5697 -120.8825 128° Southeast 481 554 41,000  Level Oakland Center
16:07 35.4864 -120.7542 129° Southeast 482 555 41,000  Level Oakland Center
16:09 35.4031 -120.6242 128° Southeast 487 560 41,000  Level Oakland Center
16:09 35.3644 -120.5656 129° Southeast 488 562 41,000 -71 Level Los Angeles Center
16:10 35.2792 -120.4336 128° Southeast 492 566 40,900  Descending Los Angeles Center
16:11 35.1936 -120.3019 128° Southeast 492 566 41,000  Climbing Los Angeles Center
16:12 35.1092 -120.1733 129° Southeast 485 558 40,900  Descending Los Angeles Center
16:13 35.0203 -120.0381 129° Southeast 482 555 41,000 48 Climbing Los Angeles Center
16:14 34.9353 -119.9094 129° Southeast 487 560 41,000 -48 Level Los Angeles Center
16:15 34.8506 -119.7808 129° Southeast 489 563 40,900  Descending Los Angeles Center
16:16 34.7475 -119.6281 129° Southeast 488 562 41,000 48 Climbing Los Angeles Center
16:17 34.6628 -119.5000 129° Southeast 488 562 41,000  Level Los Angeles Center
16:18 34.5700 -119.3656 130° Southeast 482 555 41,000  Level Los Angeles Center
16:19 34.4847 -119.2394 129° Southeast 483 556 41,000  Level Los Angeles Center
16:20 34.3997 -119.1133 129° Southeast 484 557 41,000  Level Los Angeles Center
16:21 34.3142 -118.9889 130° Southeast 482 555 41,000  Level Los Angeles Center
16:22 34.2289 -118.8642 130° Southeast 483 556 41,000 -48 Level Los Angeles Center
16:23 34.1439 -118.7392 129° Southeast 482 555 40,900 -919 Descending Los Angeles Center
16:24 34.0411 -118.5906 130° Southeast 480 552 39,100 -2,032 Descending Los Angeles Center
16:25 33.9592 -118.4694 129° Southeast 470 541 36,700 -2,544 Descending Los Angeles Center
16:26 33.8711 -118.3519 132° Southeast 467 537 33,800 -2,736 Descending Los Angeles Center
16:28 33.7783 -118.2389 135° Southeast 470 541 31,000 -2,226 Descending Los Angeles Center
16:29 33.6889 -118.1183 132° Southeast 461 531 29,200 -1,839 Descending Los Angeles Center
16:30 33.6083 -118.0203 135° Southeast 443 510 27,200 -2,081 Descending Los Angeles Center
16:31 33.5225 -117.9092 133° Southeast 427 491 24,900 -2,286 Descending Los Angeles Center
16:31 33.4833 -117.8667 138° Southeast 405 466 24,000 -2,268 Descending Southern California TRACON
16:32 33.4167 -117.7667 129° Southeast 403 464 21,800 -1,941 Descending Southern California TRACON
16:33 33.3681 -117.7136 138° Southeast 398 458 20,700 -2,077 Descending Los Angeles Center
16:34 33.2792 -117.6003 133° Southeast 389 448 18,200 -2,308 Descending Los Angeles Center
16:34 33.2667 -117.5833 131° Southeast 386 444 17,700 -2,104 Descending Southern California TRACON
16:35 33.1667 -117.5000 145° Southeast 381 438 15,500 -2,000 Descending Southern California TRACON
16:36 33.1158 -117.4514 141° Southeast 367 422 14,100 -1,833 Descending Los Angeles Center
16:37 33.0339 -117.3864 146° Southeast 358 412 12,200 -1,756 Descending Los Angeles Center
16:38 32.9547 -117.3239 146° Southeast 347 399 10,500 -1,452 Descending Los Angeles Center
16:39 32.8828 -117.2661 146° Southeast 322 371 9,200 -1,113 Descending Los Angeles Center
16:40 32.8175 -117.2133 146° Southeast 295 339 8,200 -1,023 Descending Los Angeles Center
16:41 32.8000 -117.1167 102° East 243 280 7,000 -1,091 Descending Southern California TRACON
16:42 32.7833 -117.0500 107° East 224 258 6,000 -1,043 Descending Southern California TRACON
16:43 32.7667 -116.9833 107° East 216 249 5,000 -1,091 Descending Southern California TRACON
16:44 32.7000 -116.9667 168° South 235 270 3,800 -1,100 Descending Southern California TRACON
16:45 32.7000 -117.0167 270° West 197 227 2,800 -1,000 Descending Southern California TRACON
16:46 32.7167 -117.0833 287° West 164 189 1,700 -900 Descending Southern California TRACON
16:47 32.7167 -117.1167 270° West 134 154 1,000 -684 Descending Southern California TRACON
16:48 32.7333 -117.1667 292° West 125 144 400 -600 Descending Southern California TRACON
16:50 32.7333 -117.1833 280° West  Level FlightAware Approximate

Login

Don't have an account? Register now (free) for customized features, flight alerts, and more!